Regional Weather Roundup
Issued by NWS Jackson, KY

Home | Current Version | Previous Version | Graphics & Text | Print | Product List | Glossary On
Versions: 1 2 3 4 5 6 7 8 9 10 11 12 13 14 15 16 17 18 19 20 21 22 23 24 25 26 27 28 29 30 31 32 33 34 35 36 37 38 39 40 41 42 43 44 45 46 47 48 49 50
082
ASUS43 KJKL 230310
RWRJKL

EAST KENTUCKY HOURLY WEATHER ROUNDUP
NATIONAL WEATHER SERVICE JACKSON KY
1100 PM EDT SUN OCT 22 2017

NOTE: "FAIR" INDICATES FEW OR NO CLOUDS BELOW 12,000 FEET WITH
NO SIGNIFICANT WEATHER AND/OR OBSTRUCTIONS TO VISIBILITY.

* THESE REPORTS ARE NOT UNDER NWS QUALITY CONTROL AND MAY NOT
  REPORT WEATHER SUCH AS PRECIPITATION AND FOG.

KYZ079-080-083-085-087-088-110-112-115-119-120-230400
...EASTERN KENTUCKY...

CITY           SKY/WX    TMP DP  RH WIND       PRES   REMARKS
JACKSON        CLOUDY    67  51  56 VRB7      30.12F
LONDON         PTCLDY    64  51  62 SE5       30.10F
SOMERSET*      CLOUDY    66  52  59 S5        30.09S
MONTICELLO*    PTCLDY    68  56  65 E9        30.08F
WILLIAMSBURG*  PTCLDY    63  55  77 SE5       30.10S
MIDDLESBORO*   CLOUDY    60  56  84 CALM      30.14S
HARLAN APT*    CLOUDY    68  50  52 N3        30.15S
PIKE CO APT*     N/A     67  51  56 SE9       30.15F
BIG SANDY APT* MOCLDY    68  52  57 S8        30.15F
MOREHEAD APT*  MOCLDY    64  52  63 CALM      30.11F
$$

KYZ035-036-041-042-044-050-067-078-099-230400
...CENTRAL KENTUCKY...

CITY           SKY/WX    TMP DP  RH WIND       PRES   REMARKS
MT STERLING*   PTCLDY    66  50  55 SE7       30.09F
FLEMING/MASON* CLOUDY    63  51  66 SE7       30.09F
DANVILLE*      PTCLDY    63  52  67 S6        30.07S
LEXINGTON      CLOUDY    67  52  58 SE8       30.06F
FRANKFORT      CLOUDY    67  52  58 SE7       30.04S
LOUISVILLE     CLOUDY    70  58  65 SE9       30.00F
LEBANON*         N/A     68  55  64 SE9       30.04S
GLASGOW*       CLOUDY    70  58  65 SE7       30.00F
BOWLING GREEN  CLOUDY    72  62  71 SE7       29.98F
$$

KYZ091>093-OHZ055-061-077-WVZ005-015-034-035-042-230400
...SOUTHERN OHIO/WEST VIRGINIA...

CITY           SKY/WX    TMP DP  RH WIND       PRES   REMARKS
COVINGTON      CLOUDY    67  53  61 SE10      30.04F
COLUMBUS       CLOUDY    64  52  64 SE7       30.10F
DAYTON         CLOUDY    63  50  62 SE10      30.07F
WILMINGTON     MOCLDY    62  51  67 SE6       30.07F
HUNTINGTON     CLOUDY    61  54  77 E6        30.12F
CHARLESTON     PTCLDY    69  47  45 SE10      30.16F
PINEVILLE*     PTCLDY    58  51  79 MISG      30.27F
BECKLEY        CLOUDY    61  49  64 S9        30.25F
BLUEFIELD      PTCLDY    60  49  66 VRB5      30.28F
LOGAN CO APT*    N/A     68  50  52 S10G17    30.18S
$$

VAZ002-007-008-TNZ017-027-036-066-071-230400
...SOUTHWEST VIRGINIA/EAST TENNESSEE...

CITY           SKY/WX    TMP DP  RH WIND       PRES   REMARKS
WISE*          CLOUDY    63  52  67 S12G17    30.22F
JONESVILLE*      N/A     66  52  59 E5        30.18F
ABINGDON*      CLOUDY    67  54  61 E5        30.23F
BRISTOL        CLOUDY    67  56  67 E6        30.20F
MORRISTOWN*    PTCLDY    68  55  64 SE10G17   30.14S
SEVIERVILLE*   PTCLDY    63  55  77 CALM      30.12S
KNOXVILLE      CLOUDY    67  59  75 SE5       30.10F
LAFOLLETTE*    PTCLDY    63  59  88 CALM      30.15S
OAK RIDGE      MOCLDY    66  60  81 CALM      30.12S
CROSSVILLE     CLOUDY    66  56  70 SE9       30.11F
NASHVILLE      CLOUDY    73  62  68 SE13G21   29.97F
$$

...KEY TO REMARKS...
VSB - VISIBILITY IN MILES
WCI - WIND CHILL INDEX
HX  - HEAT INDEX

$$




USA.gov is the U.S. government's official web portal to all federal, state and local government web resources and services.